Temperature
17 17 17 17 17 17 17 17 17 17 16 16 16 16 16 16 16 16 16 15 15 15 15 15 14 14 14 14 13 13 13 13 12 12 12 12 11 11
16 16 16 16 17 17 17 17 17 17 16 16 16 16 16 16 16 16 15 15 15 15 14 14 14 14 13 13 13 13 12 12 12 12 11 11 11 11
16 16 16 16 16 16 16 16 16 16 16 16 15 15 15 15 15 15 15 14 14 14 14 14 13 13 13 13 12 12 12 12 11 11 11 11 10 10
16 16 16 16 16 16 16 16 16 16 16 15 15 15 15 14 14 14 14 14 13 13 13 13 13 12 12 12 12 11 11 11 11 11 10 10 10 10
16 16 15 15 15 15 15 15 15 15 15 15 15 14 14 14 14 13 13 13 13 12 12 12 12 12 11 11 11 11 10 10 10 10 10 9 9 9
15 15 15 15 15 15 15 15 15 15 14 14 14 14 13 13 13 13 13 12 12 12 11 11 11 11 11 10 10 10 10 10 9 9 9 9 9 8
15 15 15 15 15 14 14 14 14 14 14 13 13 13 13 13 13 12 12 11 11 11 11 11 10 10 10 10 9 9 9 9 9 8 8 8 8 8
15 14 14 14 14 14 14 14 14 13 13 13 13 12 12 12 12 12 11 11 10 10 10 10 10 9 9 9 9 8 8 8 8 8 7 7 7 7
14 14 14 14 14 14 14 13 13 13 13 13 13 12 12 12 12 11 11 11 10 10 10 9 9 8 8 8 8 8 8 7 7 7 7 7 6 6
14 14 14 13 13 13 13 13 13 12 12 12 12 12 12 12 11 11 11 10 10 9 9 9 8 8 8 8 8 7 7 7 6 6 6 6 6 6
13 13 13 13 13 12 12 12 12 12 11 11 11 11 11 11 11 10 10 10 9 9 9 8 8 8 7 7 7 7 7 6 6 6 6 5 5 5
13 12 12 12 12 12 12 12 11 11 11 11 11 11 10 10 10 10 10 10 9 8 8 8 8 7 7 7 7 7 6 6 6 6 5 5 5 5
12 12 12 12 12 11 11 11 11 11 11 10 10 10 10 10 9 9 9 9 9 8 8 8 7 7 7 7 7 7 6 6 6 5 5 5 5 5
12 12 12 11 11 11 11 11 10 10 10 10 10 9 9 9 9 8 9 8 8 8 8 7 7 7 7 7 7 6 6 6 6 5 5 5 5 5
12 11 11 11 11 11 10 10 10 10 10 9 9 9 8 8 8 8 8 8 8 7 7 7 7 7 7 7 6 6 6 6 6 5 5 5 5 5
11 11 11 10 10 10 10 10 9 9 9 9 9 8 8 8 8 8 7 7 7 7 7 7 7 7 6 6 6 6 6 6 6 5 5 5 5 5
11 10 10 10 10 9 9 9 9 9 9 8 8 8 8 7 7 7 7 7 7 7 7 6 6 6 6 6 6 6 6 6 6 5 5 5 5 5
10 10 10 9 9 9 9 9 8 8 8 8 8 7 7 7 7 7 7 7 7 6 6 6 6 6 6 6 6 6 6 5 5 5 5 5 5 5
10 10 9 9 9 9 9 8 8 8 7 7 7 7 7 7 6 6 6 6 6 6 6 6 6 6 6 6 6 6 6 6 5 5 5 5 5 5
9 9 9 9 8 8 8 8 7 7 7 7 7 6 6 6 6 6 6 6 6 6 6 6 6 6 6 6 6 6 6 6 6 5 5 5 5 5
9 9 8 8 8 8 7 7 7 6 6 6 6 6 6 6 6 6 6 6 6 6 6 6 6 6 6 6 6 6 6 6 6 6 5 5 5 5
8 8 8 8 7 7 7 6 6 6 6 6 6 6 6 6 6 6 6 6 6 6 6 6 6 6 6 6 6 6 6 6 6 6 6 6 6 5
8 8 7 7 7 7 7 6 6 6 6 6 5 5 5 5 5 5 6 6 6 6 6 6 6 6 6 6 6 6 6 6 6 6 6 6 6 6
Wind_Speed
5 5 4 3 3 3 3 3 4 4 3 2 1 1 6 8 11 11 12 13 14 13 12 12 11 10 10 9 8 8 7 7 6 6 6 5 4 4
4 3 3 3 2 2 2 2 3 3 3 1 1 1 4 7 10 11 12 13 13 14 13 12 12 11 10 9 8 8 7 7 6 5 5 5 5 4
4 3 3 2 2 2 2 2 2 2 3 1 1 2 4 5 7 9 9 9 10 12 12 12 12 11 10 9 9 8 7 6 5 5 4 4 4 4
3 3 3 3 3 3 2 2 2 2 3 3 2 2 3 4 5 5 7 7 8 10 12 11 11 10 10 10 9 8 7 6 5 4 4 4 4 4
2 3 2 2 2 2 2 2 2 2 2 4 3 2 2 4 4 4 5 5 6 9 10 10 11 11 11 11 10 9 8 7 5 4 4 4 3 3
1 1 1 2 2 3 2 2 2 2 2 4 4 3 3 3 4 4 3 3 3 7 9 9 10 11 10 10 10 9 8 7 6 5 4 4 3 3
1 1 0 1 1 1 1 1 2 2 3 4 4 3 3 3 3 3 4 4 3 4 5 5 7 7 8 9 8 8 7 7 6 5 3 2 2 2
2 2 2 3 4 4 4 5 3 3 3 3 3 4 3 3 3 3 4 4 3 3 4 3 5 4 6 8 8 8 7 6 5 4 3 2 2 2
3 2 2 3 3 3 5 6 7 6 4 4 4 3 3 3 4 4 4 4 3 4 4 3 3 4 6 9 10 8 7 6 4 3 1 1 2 4
3 3 3 3 2 4 5 6 6 6 5 4 4 4 3 3 4 4 5 6 5 4 3 2 3 3 5 9 11 9 7 5 4 3 2 2 4 5
3 4 3 3 4 4 5 6 6 5 10 12 11 10 9 9 7 4 5 5 5 3 1 1 2 2 3 3 8 9 8 7 6 5 5 5 6 7
3 4 5 5 5 4 5 5 6 5 6 7 8 8 8 8 7 4 4 4 4 3 1 1 1 1 1 2 5 8 8 8 9 9 8 8 8 7
3 3 4 6 6 5 4 3 5 5 5 6 6 5 5 6 6 7 6 4 4 3 3 2 1 1 1 1 1 4 6 6 7 8 10 10 9 7
3 4 4 6 6 6 5 6 6 5 4 5 5 5 5 5 5 7 9 9 7 6 5 3 2 1 1 1 0 1 2 3 3 3 4 6 8 9
4 6 7 7 6 5 6 7 5 3 4 5 5 4 4 4 5 6 7 8 7 7 7 5 3 2 1 1 0 0 1 1 1 1 1 2 4 5
6 7 7 5 4 5 5 4 3 3 4 4 4 4 4 4 4 4 4 4 4 3 4 5 4 2 1 0 0 0 0 1 1 0 1 3 5 4
4 4 3 3 3 3 3 3 3 3 3 3 4 5 4 4 3 2 2 2 3 3 2 1 2 1 0 0 1 1 1 1 0 0 2 3 3 4
4 3 3 3 4 4 4 4 3 3 3 3 4 4 4 3 3 2 2 2 3 2 2 1 1 1 0 1 2 1 1 1 2 2 2 2 3 2
2 3 3 3 3 3 3 4 4 3 3 3 3 3 3 3 2 2 2 2 2 2 2 1 0 0 0 1 2 3 1 1 2 2 2 2 3 3
1 3 3 3 3 3 3 3 3 4 3 3 3 3 3 3 2 2 2 1 0 1 1 1 0 0 1 1 1 3 6 3 1 2 3 3 3 5
3 3 3 4 4 4 4 3 3 3 3 3 3 3 2 2 2 1 1 0 1 1 1 1 1 2 2 1 1 2 3 6 5 3 3 3 4 3
3 3 4 4 4 4 4 4 4 4 3 3 3 2 1 1 1 1 1 1 1 0 0 1 2 2 2 2 3 2 2 3 7 11 11 9 3 3
3 4 4 4 4 4 4 4 4 4 3 3 3 2 1 1 1 1 1 1 1 1 1 1 1 2 2 3 3 2 3 3 3 3 5 13 17 20
Wind_Direction
236 236 242 254 258 248 231 216 214 226 233 220 184 132 128 133 139 139 136 144 150 150 147 143 139 134 130 126 120 115 110 105 101 94 84 73 58 45
233 238 242 253 262 255 247 251 225 212 218 213 123 99 110 121 126 127 130 137 144 146 146 144 142 139 137 133 129 122 116 110 104 94 83 72 57 40
230 217 219 238 269 269 245 236 230 199 198 209 93 106 100 102 112 116 120 127 136 146 149 148 144 141 138 133 128 122 117 110 100 93 84 72 58 43
230 224 225 223 230 252 251 244 230 218 180 170 141 119 111 123 122 123 126 130 132 135 136 137 136 132 129 124 121 118 112 103 94 87 80 70 58 43
230 228 230 225 239 242 228 228 230 218 164 162 158 137 122 127 121 122 118 122 135 132 129 127 127 125 122 119 116 112 109 104 98 92 86 75 58 36
209 228 240 221 221 232 228 220 212 193 157 152 147 142 133 137 137 145 136 131 130 129 122 122 123 122 121 119 118 115 110 104 98 90 81 76 65 47
78 65 28 97 105 167 203 196 188 170 160 158 150 142 145 153 165 168 156 140 111 117 113 119 125 122 122 126 125 124 118 109 100 90 82 71 52 48
94 78 76 79 93 97 94 87 98 150 168 165 157 150 149 146 148 151 147 148 144 139 131 123 133 124 134 138 140 139 132 124 118 109 89 60 23 352
76 78 83 83 94 111 101 92 77 78 112 146 146 153 156 165 157 147 139 134 128 151 137 131 137 127 138 146 149 144 141 139 138 135 122 21 343 327
77 87 88 79 72 106 106 98 82 62 72 101 118 124 123 131 150 153 142 117 95 100 108 124 141 136 137 154 165 164 167 175 185 203 250 301 310 313
88 75 82 82 72 108 122 114 105 90 75 84 90 96 98 101 108 119 130 137 128 118 100 117 128 122 127 158 188 192 195 204 220 238 255 276 297 308
103 90 76 72 73 91 117 122 121 113 109 99 93 97 101 101 102 102 136 142 132 122 108 110 121 116 131 162 186 199 211 226 237 247 256 267 280 290
111 100 82 79 76 75 95 112 126 124 121 116 112 105 95 88 82 74 74 98 104 91 114 108 97 93 111 136 177 196 205 218 226 242 254 258 264 265
109 109 105 103 91 86 89 99 110 111 119 112 106 103 103 101 92 87 83 81 89 104 116 114 106 103 72 61 96 197 227 228 217 226 247 254 254 262
99 109 121 122 107 96 98 106 116 120 117 114 114 110 105 111 113 107 100 95 90 99 106 103 104 111 86 68 47 204 248 243 216 230 279 269 248 245
119 117 118 109 100 103 115 120 110 103 111 116 121 117 113 113 112 119 122 123 108 96 103 99 98 107 110 323 282 321 320 268 218 185 302 289 279 257
135 144 148 142 130 122 119 108 105 109 105 106 113 118 118 114 116 120 119 114 103 110 120 139 155 144 189 351 358 2 332 335 23 173 288 288 268 262
139 149 145 142 140 141 141 133 121 113 108 110 112 116 120 122 116 106 102 112 116 115 110 113 130 135 352 7 330 330 3 350 330 305 290 296 299 298
138 143 135 135 137 136 130 120 114 111 106 105 106 114 114 110 110 104 84 83 94 114 120 123 133 266 271 255 285 290 284 285 300 306 302 301 294 288
158 133 125 128 122 118 115 109 113 119 114 108 99 99 104 112 113 112 106 79 54 101 111 117 89 21 316 287 254 256 256 245 260 283 292 292 286 291
144 125 123 123 115 108 105 105 105 107 107 108 107 102 102 109 107 113 121 154 251 159 129 122 246 251 246 277 270 242 238 242 240 237 262 279 287 285
124 121 113 113 117 121 127 132 131 129 134 137 129 132 133 132 151 164 175 208 228 215 181 194 222 248 254 271 282 278 258 258 254 255 254 254 254 273
120 122 125 133 138 145 145 151 154 151 153 144 136 141 140 152 201 214 217 217 221 262 236 207 233 256 271 279 287 295 302 287 272 261 260 259 253 255
Height
1562 1563 1564 1564 1565 1565 1566 1567 1568 1568 1569 1570 1570 1571 1571 1572 1572 1573 1574 1575 1576 1577 1577 1578 1578 1579 1579 1579 1579 1579 1579 1579 1579 1579 1578 1578 1578 1577
1557 1558 1559 1560 1560 1561 1562 1563 1564 1564 1565 1565 1567 1567 1568 1568 1569 1570 1571 1572 1573 1573 1574 1574 1575 1575 1576 1576 1576 1576 1576 1575 1575 1575 1575 1575 1574 1574
1553 1554 1554 1555 1555 1556 1557 1558 1559 1560 1560 1561 1563 1564 1565 1565 1566 1567 1567 1568 1569 1570 1571 1571 1571 1572 1572 1572 1572 1572 1572 1572 1572 1572 1571 1571 1571 1570
1549 1550 1550 1550 1551 1551 1552 1553 1554 1555 1556 1557 1558 1559 1561 1561 1562 1563 1564 1565 1566 1567 1567 1568 1568 1569 1569 1569 1569 1569 1569 1568 1568 1568 1567 1567 1567 1566
1545 1545 1546 1546 1546 1547 1547 1549 1550 1551 1552 1553 1554 1555 1557 1558 1559 1560 1560 1561 1562 1563 1564 1564 1565 1565 1566 1566 1566 1566 1565 1565 1565 1565 1564 1563 1563 1562
1541 1541 1542 1542 1542 1543 1543 1545 1546 1547 1548 1548 1550 1551 1552 1554 1555 1555 1556 1557 1559 1560 1561 1561 1562 1563 1563 1563 1563 1563 1562 1562 1561 1561 1560 1560 1559 1559
1538 1539 1539 1539 1539 1539 1540 1541 1542 1543 1544 1545 1546 1548 1549 1550 1550 1552 1553 1554 1556 1557 1558 1559 1560 1560 1561 1561 1561 1561 1560 1559 1558 1558 1557 1557 1556 1555
1536 1536 1537 1537 1537 1537 1538 1538 1539 1540 1541 1542 1544 1545 1546 1547 1548 1549 1551 1552 1553 1555 1555 1556 1557 1557 1558 1558 1559 1559 1558 1558 1557 1556 1555 1554 1554 1553
1535 1535 1535 1535 1535 1535 1536 1536 1537 1538 1540 1541 1541 1542 1544 1545 1546 1547 1549 1550 1551 1552 1553 1554 1556 1556 1557 1557 1558 1558 1557 1556 1555 1555 1554 1553 1552 1552
1534 1534 1534 1534 1534 1534 1534 1534 1535 1536 1537 1538 1539 1541 1542 1543 1545 1546 1547 1548 1549 1551 1552 1553 1554 1555 1556 1556 1557 1557 1557 1556 1555 1554 1553 1553 1552 1551
1533 1533 1533 1533 1533 1533 1533 1533 1534 1535 1537 1538 1539 1540 1541 1542 1543 1544 1545 1546 1547 1549 1551 1552 1553 1554 1555 1555 1556 1556 1556 1556 1555 1554 1554 1553 1552 1550
1532 1532 1533 1533 1533 1533 1533 1534 1534 1535 1536 1537 1538 1539 1540 1541 1542 1543 1544 1544 1546 1547 1549 1550 1552 1553 1554 1555 1556 1556 1556 1556 1555 1554 1553 1552 1551 1550
1532 1532 1532 1533 1533 1533 1533 1534 1534 1535 1536 1537 1538 1539 1539 1540 1541 1542 1543 1544 1545 1546 1547 1549 1550 1552 1553 1554 1555 1555 1555 1555 1554 1554 1553 1552 1551 1550
1532 1532 1532 1533 1533 1533 1534 1534 1535 1536 1537 1537 1538 1538 1539 1540 1541 1542 1543 1544 1545 1546 1547 1548 1549 1551 1553 1553 1554 1554 1555 1554 1554 1553 1552 1551 1550 1548
1531 1532 1532 1533 1533 1533 1534 1535 1535 1536 1537 1537 1538 1539 1539 1540 1541 1542 1543 1544 1545 1546 1547 1548 1549 1551 1552 1553 1553 1553 1554 1553 1553 1552 1551 1550 1548 1547
1531 1531 1532 1532 1533 1533 1534 1535 1535 1536 1536 1537 1538 1539 1540 1541 1542 1542 1543 1544 1545 1546 1547 1549 1549 1550 1551 1552 1553 1553 1553 1552 1552 1551 1549 1548 1547 1546
1530 1530 1531 1531 1532 1533 1533 1534 1535 1536 1536 1537 1538 1539 1540 1541 1542 1543 1544 1545 1546 1547 1548 1549 1550 1550 1551 1551 1552 1552 1552 1551 1550 1549 1548 1547 1546 1544
1529 1529 1530 1531 1531 1532 1533 1533 1534 1535 1536 1537 1538 1539 1540 1541 1542 1543 1545 1546 1547 1548 1548 1549 1549 1550 1551 1551 1552 1551 1550 1550 1549 1548 1547 1545 1544 1543
1527 1528 1529 1529 1530 1531 1532 1533 1533 1534 1536 1537 1538 1539 1540 1541 1542 1544 1545 1546 1547 1548 1549 1549 1549 1549 1550 1550 1550 1550 1549 1548 1547 1546 1545 1544 1542 1540
1526 1527 1528 1528 1529 1530 1531 1532 1533 1534 1535 1536 1537 1539 1540 1541 1542 1544 1545 1546 1548 1548 1549 1549 1549 1549 1549 1549 1549 1549 1548 1547 1546 1545 1543 1542 1540 1538
1525 1526 1527 1528 1528 1529 1530 1531 1532 1534 1535 1536 1537 1539 1540 1541 1543 1544 1545 1546 1547 1548 1548 1549 1549 1549 1548 1548 1548 1547 1547 1546 1544 1543 1541 1539 1537 1536
1525 1525 1526 1527 1528 1529 1530 1531 1532 1534 1535 1536 1538 1539 1540 1542 1543 1544 1545 1546 1547 1547 1548 1548 1548 1548 1547 1547 1546 1546 1545 1544 1542 1541 1539 1538 1536 1533
1525 1525 1526 1527 1528 1528 1529 1531 1532 1533 1535 1536 1538 1539 1540 1542 1543 1544 1545 1545 1546 1546 1547 1547 1547 1547 1546 1546 1545 1544 1543 1541 1540 1538 1537 1535 1534 1531